Time,TemperatureF,DewpointF,PressureIn,WindDirection,WindDirectionDegrees,WindSpeedMPH,WindSpeedGustMPH,Humidity,HourlyPrecipIn,Conditions,Clouds,dailyrainin,SolarRadiationWatts/m^2,SoftwareType,DateUTC
2013-04-27 00:00:00,55.0,38.0,-100.00,South,180,5.0,-999.0,52,-99.99,,,-99.99,0.000000,,2013-04-27 04:00:00,
2013-04-27 00:43:00,55.0,38.0,-100.00,South,180,5.0,-999.0,52,-99.99,,,-99.99,0.000000,,2013-04-27 04:43:00,
2013-04-27 00:53:00,55.0,38.0,-100.00,South,180,5.0,-999.0,52,-99.99,,,-99.99,0.000000,,2013-04-27 04:53:00,
2013-04-27 01:00:00,53.0,41.0,-100.00,SW,225,4.0,-999.0,62,0.01,,,-99.99,0.000000,,2013-04-27 05:00:00,
2013-04-27 01:42:00,53.0,41.0,-100.00,SW,225,4.0,-999.0,62,0.01,,,-99.99,0.000000,,2013-04-27 05:42:00,
2013-04-27 01:52:00,53.0,41.0,-100.00,SW,225,4.0,-999.0,62,0.01,,,-99.99,0.000000,,2013-04-27 05:52:00,
2013-04-27 03:00:00,52.0,43.0,-100.00,South,180,3.0,-999.0,72,-99.99,,,-99.99,0.000000,,2013-04-27 07:00:00,
2013-04-27 03:42:00,52.0,43.0,-100.00,South,180,3.0,-999.0,72,-99.99,,,-99.99,0.000000,,2013-04-27 07:42:00,
2013-04-27 03:52:00,52.0,43.0,-100.00,South,180,3.0,-999.0,72,-99.99,,,-99.99,0.000000,,2013-04-27 07:52:00,
2013-04-27 04:00:00,52.0,44.0,-100.00,SSW,202,4.0,-999.0,73,-99.99,,,-99.99,0.000000,,2013-04-27 08:00:00,
2013-04-27 04:42:00,52.0,44.0,-100.00,SSW,202,4.0,-999.0,73,-99.99,,,-99.99,0.000000,,2013-04-27 08:42:00,
2013-04-27 04:52:00,52.0,44.0,-100.00,SSW,202,4.0,-999.0,73,-99.99,,,-99.99,0.000000,,2013-04-27 08:52:00,
2013-04-27 05:00:00,52.0,44.0,-100.00,SSW,202,5.0,-999.0,75,-99.99,,,-99.99,0.000000,,2013-04-27 09:00:00,
2013-04-27 05:43:00,52.0,44.0,-100.00,SSW,202,5.0,-999.0,75,-99.99,,,-99.99,0.000000,,2013-04-27 09:43:00,
2013-04-27 05:53:00,52.0,44.0,-100.00,SSW,202,5.0,-999.0,75,-99.99,,,-99.99,0.000000,,2013-04-27 09:53:00,
2013-04-27 06:00:00,51.0,44.0,-100.00,South,180,3.0,-999.0,76,-99.99,,,-99.99,0.000000,,2013-04-27 10:00:00,
2013-04-27 06:42:00,51.0,44.0,-100.00,South,180,3.0,-999.0,76,-99.99,,,-99.99,0.000000,,2013-04-27 10:42:00,
2013-04-27 06:52:00,51.0,44.0,-100.00,South,180,3.0,-999.0,76,-99.99,,,-99.99,0.000000,,2013-04-27 10:52:00,
2013-04-27 07:42:00,51.0,44.0,-100.00,SSW,202,3.0,-999.0,77,-99.99,,,-99.99,4.640000,,2013-04-27 11:42:00,
2013-04-27 07:52:00,51.0,44.0,-100.00,SSW,202,3.0,-999.0,77,-99.99,,,-99.99,4.640000,,2013-04-27 11:52:00,
2013-04-27 08:00:00,51.0,44.0,-100.00,SSW,202,3.0,-999.0,77,-99.99,,,-99.99,90.480003,,2013-04-27 12:00:00,
2013-04-27 08:42:00,51.0,44.0,-100.00,SSW,202,3.0,-999.0,77,-99.99,,,-99.99,90.480003,,2013-04-27 12:42:00,
2013-04-27 08:52:00,51.0,44.0,-100.00,SSW,202,3.0,-999.0,77,-99.99,,,-99.99,90.480003,,2013-04-27 12:52:00,
2013-04-27 09:00:00,54.0,44.0,-100.00,SW,225,4.0,-999.0,71,-99.99,,,-99.99,232.000000,,2013-04-27 13:00:00,
2013-04-27 09:42:00,54.0,44.0,-100.00,SW,225,4.0,-999.0,71,-99.99,,,-99.99,232.000000,,2013-04-27 13:42:00,
2013-04-27 09:52:00,54.0,44.0,-100.00,SW,225,4.0,-999.0,71,-99.99,,,-99.99,232.000000,,2013-04-27 13:52:00,
2013-04-27 10:00:00,56.0,45.0,-100.00,SW,225,5.0,-999.0,65,-99.99,,,-99.99,425.720001,,2013-04-27 14:00:00,
2013-04-27 10:42:00,56.0,45.0,-100.00,SW,225,5.0,-999.0,65,-99.99,,,-99.99,425.720001,,2013-04-27 14:42:00,
2013-04-27 10:52:00,56.0,45.0,-100.00,SW,225,5.0,-999.0,65,-99.99,,,-99.99,425.720001,,2013-04-27 14:52:00,
2013-04-27 11:00:00,59.0,46.0,-100.00,SSW,202,5.0,-999.0,62,-99.99,,,-99.99,563.760010,,2013-04-27 15:00:00,
2013-04-27 11:43:00,59.0,46.0,-100.00,SSW,202,5.0,-999.0,62,-99.99,,,-99.99,563.760010,,2013-04-27 15:43:00,
2013-04-27 11:53:00,59.0,46.0,-100.00,SSW,202,5.0,-999.0,62,-99.99,,,-99.99,563.760010,,2013-04-27 15:53:00,
2013-04-27 12:00:00,61.0,46.0,-100.00,SSW,202,5.0,-999.0,57,-99.99,,,-99.99,664.679993,,2013-04-27 16:00:00,
2013-04-27 12:42:00,61.0,46.0,-100.00,SSW,202,5.0,-999.0,57,-99.99,,,-99.99,664.679993,,2013-04-27 16:42:00,
2013-04-27 12:53:00,61.0,46.0,-100.00,SSW,202,5.0,-999.0,57,-99.99,,,-99.99,664.679993,,2013-04-27 16:53:00,
2013-04-27 13:00:00,64.0,46.0,-100.00,SW,225,6.0,-999.0,52,-99.99,,,-99.99,758.640015,,2013-04-27 17:00:00,
2013-04-27 13:42:00,64.0,46.0,-100.00,SW,225,6.0,-999.0,52,-99.99,,,-99.99,758.640015,,2013-04-27 17:42:00,
2013-04-27 13:53:00,64.0,46.0,-100.00,SW,225,6.0,-999.0,52,-99.99,,,-99.99,758.640015,,2013-04-27 17:53:00,
2013-04-27 14:00:00,64.0,45.0,-100.00,WSW,247,6.0,-999.0,49,-99.99,,,-99.99,655.400024,,2013-04-27 18:00:00,
2013-04-27 14:42:00,64.0,45.0,-100.00,WSW,247,6.0,-999.0,49,-99.99,,,-99.99,655.400024,,2013-04-27 18:42:00,
2013-04-27 14:52:00,64.0,45.0,-100.00,WSW,247,6.0,-999.0,49,-99.99,,,-99.99,655.400024,,2013-04-27 18:52:00,
2013-04-27 15:00:00,65.0,45.0,-100.00,SW,225,6.0,-999.0,47,-99.99,,,-99.99,776.039978,,2013-04-27 19:00:00,
2013-04-27 15:42:00,65.0,45.0,-100.00,SW,225,6.0,-999.0,47,-99.99,,,-99.99,776.039978,,2013-04-27 19:42:00,
2013-04-27 15:53:00,65.0,45.0,-100.00,SW,225,6.0,-999.0,47,-99.99,,,-99.99,776.039978,,2013-04-27 19:53:00,
2013-04-27 16:00:00,68.0,43.0,-100.00,SW,225,7.0,-999.0,40,-99.99,,,-99.99,671.640015,,2013-04-27 20:00:00,
2013-04-27 16:42:00,68.0,43.0,-100.00,SW,225,7.0,-999.0,40,-99.99,,,-99.99,671.640015,,2013-04-27 20:42:00,
2013-04-27 16:52:00,68.0,43.0,-100.00,SW,225,7.0,-999.0,40,-99.99,,,-99.99,671.640015,,2013-04-27 20:52:00,
2013-04-27 17:00:00,67.0,42.0,-100.00,West,270,7.0,-999.0,39,-99.99,,,-99.99,605.520020,,2013-04-27 21:00:00,
2013-04-27 17:43:00,67.0,42.0,-100.00,West,270,7.0,-999.0,39,-99.99,,,-99.99,605.520020,,2013-04-27 21:43:00,
2013-04-27 17:53:00,67.0,42.0,-100.00,West,270,7.0,-999.0,39,-99.99,,,-99.99,605.520020,,2013-04-27 21:53:00,
2013-04-27 18:00:00,65.0,41.0,-100.00,WNW,292,6.0,-999.0,41,-99.99,,,-99.99,457.040009,,2013-04-27 22:00:00,
2013-04-27 18:42:00,65.0,41.0,-100.00,WNW,292,6.0,-999.0,41,-99.99,,,-99.99,457.040009,,2013-04-27 22:42:00,
2013-04-27 18:53:00,65.0,41.0,-100.00,WNW,292,6.0,-999.0,41,-99.99,,,-99.99,457.040009,,2013-04-27 22:53:00,
2013-04-27 19:00:00,63.0,39.0,-100.00,WNW,292,4.0,-999.0,41,-99.99,,,-99.99,298.119995,,2013-04-27 23:00:00,
2013-04-27 19:42:00,63.0,39.0,-100.00,WNW,292,4.0,-999.0,41,-99.99,,,-99.99,298.119995,,2013-04-27 23:42:00,
2013-04-27 19:52:00,63.0,39.0,-100.00,WNW,292,4.0,-999.0,41,-99.99,,,-99.99,298.119995,,2013-04-27 23:52:00,
2013-04-27 21:00:00,58.0,38.0,-100.00,NE,45,1.0,-999.0,48,-99.99,,,-99.99,17.400000,,2013-04-28 01:00:00,
2013-04-27 21:42:00,58.0,38.0,-100.00,NE,45,1.0,-999.0,48,-99.99,,,-99.99,17.400000,,2013-04-28 01:42:00,
2013-04-27 21:52:00,58.0,38.0,-100.00,NE,45,1.0,-999.0,48,-99.99,,,-99.99,17.400000,,2013-04-28 01:52:00,
2013-04-27 22:00:00,53.0,39.0,-100.00,North,0,2.0,-999.0,58,-99.99,,,-99.99,0.000000,,2013-04-28 02:00:00,
2013-04-27 22:42:00,53.0,39.0,-100.00,North,0,2.0,-999.0,58,-99.99,,,-99.99,0.000000,,2013-04-28 02:42:00,
2013-04-27 22:52:00,53.0,39.0,-100.00,North,0,2.0,-999.0,58,-99.99,,,-99.99,0.000000,,2013-04-28 02:52:00,
2013-04-27 23:00:00,50.0,-99.9,-100.00,North,0,3.0,-999.0,66,-99.99,,,-99.99,0.000000,,2013-04-28 03:00:00,
2013-04-27 23:43:00,50.0,40.0,-100.00,North,0,3.0,-999.0,66,-99.99,,,-99.99,0.000000,,2013-04-28 03:43:00,
2013-04-27 23:53:00,50.0,40.0,-100.00,North,0,3.0,-999.0,66,-99.99,,,-99.99,0.000000,,2013-04-28 03:53:00,